OpenBCM V1.13 (Linux)

Packet Radio Mailbox

DB0FHN

[JN59NK Nuernberg]

 Login: GUEST





  
LU9DCE > KEP      11.02.19 21:03l 248 Lines 12206 Bytes #999 (0) @ WW
BID : 18476_LU9DCE
Read: DF7EAV DK3UZ GUEST
Subj: TLE 11 02
Path: DB0FHN<DB0PM<OE2XZR<OE1XAB<HG8LXL<CX2SA<EA2RCF<LU9DCE
Sent: 190211/1801Z 18476@LU9DCE.TOR.BA.ARG.SOAM BPQ6.0.18

            __    _  _  ___  ____   ___  ____    ____  ____  ____
           (  )  / )( \/ _ \(    \ / __)(  __)  (  _ \(  _ \/ ___)
           / (_/\) \/ (\__  )) D (( (__  ) _)    ) _ ( ) _ (\___ \
           \____/\____/(___/(____/ \___)(____)  (____/(____/(____/
               ESTACION DE PACKET RADIO - BUENOS AIRES (GF05OM)
                   BOLETINES INFORMATIVOS PROGRAMADOS (BIP)
                          CASTILLOEDUARDO@ZOHO.COM

+----------------------------------------------------------------------------+
OSCAR 7
1  7530U 74089B   19041.93638715 -.00000021  00000-0  15252-3 0  9992
2  7530 101.7264  10.9997 0011858 233.4143 160.3386 12.53636611 24519
OSCAR 11 (UoSAT 2)
1 14781U 84021B   19042.52130420  .00000054  00000-0  12726-4 0  9990
2 14781  97.6247  73.1617 0009029  26.9291 333.2390 14.83062774879911
OSCAR 19 (LUSAT)
1 20442U 90005G   19041.88505368 -.00000004 +00000-0 +14681-4 0  9993
2 20442 098.6362 344.1926 0012033 161.1267 199.0365 14.32916839518014
EYESAT A
1 22825U 93061C   19041.95023624 -.00000006 +00000-0 +15498-4 0  9992
2 22825 098.8922 027.7466 0008718 018.0215 342.1274 14.30050831323424
ITAMSAT
1 22826U 93061D   19042.19148108 -.00000003  00000-0  16663-4 0  9997
2 22826  98.8862  28.0005 0009051   6.4547 353.6750 14.30383754323925
RADIO ROSTO
1 23439U 94085A   19041.92301778 -.00000038 +00000-0 +13284-3 0  9992
2 23439 064.8193 322.7474 0149072 137.7381 355.5494 11.27567566993480
JAS 2
1 24278U 96046B   19042.43961085 -.00000033  00000-0  36638-5 0  9998
2 24278  98.5174 213.2312 0349895 209.9572 148.1133 13.53088878110593
TECHSAT 1B
1 25397U 98043D   19042.05932947 -.00000003  00000-0  17812-4 0  9992
2 25397  98.6768 343.8383 0002258  65.9428 294.1986 14.23659913 69710
ISS (ZARYA)
1 25544U 98067A   19042.59404374  .00001678  00000-0  33577-4 0  9993
2 25544  51.6413 265.7816 0005338  18.1895  72.0019 15.53255612155744
PCSAT
1 26931U 01043C   19041.90655361 -.00000043 +00000-0 +15199-4 0  9996
2 26931 067.0530 333.4245 0005409 268.8427 091.2054 14.30531740906625
SAUDISAT 1C
1 27607U 02058C   19042.53529820 -.00000033  00000-0  16282-4 0  9997
2 27607  64.5545  78.3531 0081890 280.6622  78.5266 14.75518989868274
CUTE-1
1 27844U 03031E   19041.95899018 +.00000034 +00000-0 +35068-4 0  9999
2 27844 098.6865 052.0678 0010544 045.5520 314.6519 14.22159270810092
CUBESAT XI 4
1 27848U 03031J   19042.47789065  .00000023  00000-0  30180-4 0  9999
2 27848  98.6946  53.0489 0010561  54.4806 305.7355 14.21757111810065
MOZHAYETS 4
1 27939U 03042A   19042.41232198  .00000076  00000-0  22180-4 0  9995
2 27939  98.0193 180.8678 0014205 108.9634 251.3122 14.66752560821888
CUBESAT XI 5
1 28895U 05043F   19041.94235395 +.00000094 +00000-0 +26895-4 0  9996
2 28895 097.9376 189.2080 0017501 039.0871 321.1593 14.63629136708566
CUTE-1.7+APD II
1 32785U 08021C   19041.87495501  .00000193  00000-0  26535-4 0  9998
2 32785  97.5477  47.6390 0012327 333.1109  26.9468 14.88247895584671
DELFI C3
1 32789U 08021G   19041.91581337 +.00000637 +00000-0 +47021-4 0  9996
2 32789 097.4823 095.3422 0012001 195.4465 164.6398 15.06642050587621
SEEDS
1 32791U 08021J   19042.51000525  .00000364  00000-0  42396-4 0  9998
2 32791  97.5301  54.0594 0012122 305.5261  54.4827 14.90731355585169
YUBELEINY
1 32953U 08025A   19042.47985642  .00000021  00000-0  75656-4 0  9994
2 32953  82.4992 223.8529 0019672  48.8556 311.4215 12.43087543486507
PRISM (HITOMI)
1 33493U 09002B   19040.22106459 -.00000064  00000-0  27954-7 0  9991
2 33493  98.1216 316.2721 0014333 254.3196 105.6442 14.96497907545795
KKS-1 (KISEKI)
1 33499U 09002H   19042.51641565  .00000072  00000-0  18661-4 0  9993
2 33499  98.3543 237.1082 0008043 248.7747 111.2602 14.75405455540472
SWISSCUBE
1 35932U 09051B   19042.07285695  .00000088  00000-0  30987-4 0  9992
2 35932  98.5708 204.4174 0007545 189.0304 171.0758 14.56242783498203
BEESAT
1 35933U 09051C   19042.42740255  .00000083  00000-0  29623-4 0  9990
2 35933  98.5744 206.4735 0005507 198.8153 161.2841 14.56337266498367
ITUPSAT 1
1 35935U 09051E   19041.93074177 +.00000059 +00000-0 +24731-4 0  9998
2 35935 098.5854 206.2083 0007822 199.8498 160.2396 14.55503056498028
XIWANG-1 (HOPE-1)
1 36122U 09072B   19042.42781252 -.00000049  00000-0 -16973-4 0  9994
2 36122 100.0712  50.7964 0006894 281.6684  78.3666 13.16348265440137
TISAT 1
1 36799U 10035E   19042.44606378  .00000219  00000-0  28272-4 0  9994
2 36799  98.1353 190.5322 0013246 139.4973 220.7233 14.91000839465806
JUGNU
1 37839U 11058B   19042.17180333  .00000304  00000-0  20599-4 0  9993
2 37839  19.9627  28.0677 0018891   2.0998  87.0415 14.12641417379208
SRMSAT
1 37841U 11058D   19042.24543243  .00000286  00000-0  11691-4 0  9999
2 37841  19.9726  81.7578 0011645 236.3189 188.9682 14.10624230378670
M-CUBED/EXP-1 PRIME
1 37855U 11061F   19041.77861619  .00000877  00000-0  51966-4 0  9990
2 37855 101.7274 231.6173 0174508  95.8307 266.2827 15.05128430397531
HORYU 2
1 38340U 12025D   19041.62662695  .00000141  00000-0  28721-4 0  9995
2 38340  98.3454  76.2650 0011900 166.4235 193.7296 14.75665211362272
STRAND 1
1 39090U 13009E   19042.54220685  .00000007  00000-0  17621-4 0  9990
2 39090  98.4994 250.5330 0008326 311.7931  48.2542 14.35070196312151
SOMP
1 39134U 13015E   19042.44190357  .00000987  00000-0  55163-4 0  9997
2 39134  64.8630  72.5910 0018599 321.0301  38.9484 15.19802075321252
BEESAT 3
1 39135U 13015F   19042.53656429  .00000711  00000-0  45431-4 0  9997
2 39135  64.8703  88.8332 0010171 273.1145  86.8817 15.17196846320951
BEESAT 2
1 39136U 13015G   19042.52653953  .00000646  00000-0  42816-4 0  9997
2 39136  64.8689  92.3070 0010462 288.1002  71.8984 15.16629765320886
CUBEBUG 1
1 39153U 13018D   19042.50239407  .00000159  00000-0  27779-4 0  9991
2 39153  97.9765 141.3879 0015706 248.8163 111.1371 14.80510447312993
ZACUBE
1 39417U 13066B   19042.49027768  .00000179  00000-0  28720-4 0  9999
2 39417  97.5703  63.0919 0060511  91.0940 269.7207 14.81052486282218
TRITON 1
1 39427U 13066M   19042.45440865  .00000112  00000-0  25923-4 0  9992
2 39427  97.6630  27.8009 0113076 212.3222 147.1022 14.67778697279676
GOMX 1
1 39430U 13066Q   19042.42360925  .00000154  00000-0  37350-4 0  9994
2 39430  97.7290   7.4852 0150163 295.9838  62.5956 14.59195817278045
HUMSAT D
1 39433U 13066T   19042.13317410  .00000254  00000-0  30159-4 0  9997
2 39433  97.5727  94.7312 0030891   9.2098 350.9681 14.92078660284050
CUBEBUG 2
1 39440U 13066AA  19041.94760919 +.00000159 +00000-0 +29026-4 0  9994
2 39440 097.6000 047.9503 0081332 139.2107 221.5231 14.75790554279935
FUNCUBE 1
1 39444U 13066AE  19041.95277245 +.00000218 +00000-0 +33037-4 0  9997
2 39444 097.5695 064.3974 0059652 087.4012 273.4028 14.81858021280429
UWE-3
1 39446U 13066AG  19042.50900699  .00000179  00000-0  30263-4 0  9991
2 39446  97.5838  55.3195 0071479 114.6208 246.2472 14.78325482280478
SPROUT
1 39770U 14029E   19042.33923182  .00000678  00000-0  81509-4 0  9997
2 39770  97.8788 146.5438 0009706 138.4627 221.7325 14.87171831255903
UNISAT 6
1 40012U 14033C   19042.18554605  .00000128  00000-0  26439-4 0  9997
2 40012  97.7761 274.1392 0059057 147.9575 212.5247 14.73924430249902
DUCHIFAT 1
1 40021U 14033M   19041.79659268 +.00000461 +00000-0 +52996-4 0  9991
2 40021 097.9218 326.0004 0014206 109.3777 250.8978 14.90518258252491
QB50P1
1 40025U 14033R   19041.80949208  .00000210  00000-0  28385-4 0  9990
2 40025  97.9068 321.7041 0013692 117.1603 243.1011 14.88863327252292
CHUBUSAT 1
1 40300U 14070C   19042.30240322  .00000610  00000-0  29673-4 0  9999
2 40300  97.3403 119.6402 0020645 139.3808 261.1416 15.21905195236647
NUDT-PHONESAT
1 40900U 15049B   19042.48111398  .00001892  00000-0  85215-4 0  9998
2 40900  97.4395  53.0965 0011389 271.5513 243.9269 15.22253151188308
ZDPS 2A
1 40901U 15049C   19042.49886383  .00000787  00000-0  42610-4 0  9997
2 40901  97.4599  50.1795 0011990 288.8387 222.5026 15.17496804187943
ZDPS 2B
1 40902U 15049D   19042.50003954  .00000558  00000-0  31385-4 0  9998
2 40902  97.4526  47.8471 0012187 285.8216 192.2077 15.17273011187925
XW-2A
1 40903U 15049E   19042.42912208  .00001738  00000-0  43671-4 0  9993
2 40903  97.3555  84.3803 0011975 244.3150 230.8748 15.41350149190645
KAITUO 1A
1 40904U 15049F   19042.49370448  .00000459  00000-0  27910-4 0  9992
2 40904  97.4644  46.7076 0013363 292.7783 218.4093 15.15242393187735
OBJECT G
1 40905U 15049G   19042.48447987  .00000541  00000-0  33218-4 0  9995
2 40905  97.4665  44.4109 0014255 285.9712 225.3251 15.14179431187620
XW-2C
1 40906U 15049H   19042.45493655  .00000404  00000-0  24821-4 0  9994
2 40906  97.4652  46.6737 0013387 283.2616 240.6124 15.15500998187724
XW-2D
1 40907U 15049J   19042.37135012  .00000423  00000-0  25679-4 0  9999
2 40907  97.4630  46.2694 0012687 280.5237 186.8685 15.15675036187729
LILACSAT 2
1 40908U 15049K   19042.41412041  .00000437  00000-0  27893-4 0  9990
2 40908  97.4754  45.3497 0014456 285.5237 180.5592 15.13699114187559
XW-2F
1 40910U 15049M   19042.45887770  .00000855  00000-0  46596-4 0  9997
2 40910  97.4607  48.1052 0013365 273.9595 243.9294 15.17021460187722
XW-2B
1 40911U 15049N   19042.39844203  .00000823  00000-0  46766-4 0  9999
2 40911  97.4655  46.9135 0012547 281.4466 186.4266 15.15613364187623
KAITUO 1B
1 40912U 15049P   19042.40914921  .00001148  00000-0  57542-4 0  9992
2 40912  97.4507  51.4337 0013416 256.4251 211.4392 15.19299465187989
TIANWANG 1C (TW-1C)
1 40926U 15051B   19042.38023745  .00008975  00000-0  14522-3 0  9997
2 40926  97.1553  88.8355 0010254 116.0313   9.5477 15.52994065190386
